Weather History for K42J - April, 2014

Change the Weather History Date:

Monday, April 14, 2014

  Actual Average (KGNV) Record (KGNV)
Temperature  
Mean Temperature 75 °F 67 °F  
Max Temperature 86 °F 80 °F 91 °F (1908)
Min Temperature 64 °F 55 °F 40 °F (1907)
Degree Days  
Heating Degree Days 0 1  
Month to date heating degree days 29  
Since 1 July heating degree days 1200  
Cooling Degree Days 10 4  
Month to date cooling degree days 43  
Year to date cooling degree days 129  
Growing Degree Days 25 (Base 50)    
Moisture  
Dew Point 63 °F    
Average Humidity 74    
Maximum Humidity 100    
Minimum Humidity 39    
Precipitation  
Precipitation 0.00 in 0.08 in 1.73 in (2013)
Month to date precipitation 1.39  
Year to date precipitation 12.23  
Snow  
Snow 0.00 in 0.00 in 0.00 in ()
Month to date snowfall 0.0  
Since 1 July snowfall 0.0  
Snow Depth -    
Sea Level Pressure  
Sea Level Pressure 29.97 in    
Wind  
Wind Speed 6 mph (SSE)    
Max Wind Speed 16 mph    
Max Gust Speed 21 mph    
Visibility 10 miles    
Events      
T = Trace of Precipitation, MM = Missing Value Source: NWS Daily Summary

Daily Weather History Graph

Daily Weather History Graph

Search for Another Location

Airport or City:

Trip Planner

Search our weather history database for the weather conditions in past years. The results will help you decide how hot, cold, wet, or windy it might be!

Date:

Astronomy

Apr. 14, 2014 Rise Set
Actual Time 7:02 AM EDT 7:54 PM EDT
Civil Twilight 6:38 AM EDT 8:19 PM EDT
Nautical Twilight 6:09 AM EDT 8:48 PM EDT
Astronomical Twilight 5:39 AM EDT 9:17 PM EDT
Moon 7:33 PM EDT (4/14) 6:30 AM EDT (4/14)
Length of Visible Light 13h 41m
Length of Day
12h 52m
Full, 100% of the Moon is Illuminated
Apr 14
Full
Apr 15
Full
Apr 22
Last Quarter
Apr 29
New
May 6
First Quarter

Hourly Weather History & Observations

Time (EDT) Temp. Heat Index Dew Point Humidity Pressure Visibility Wind Dir Wind Speed Gust Speed Precip Events Conditions
12:15 AM 64.4 °F - 62.6 °F 94% 30.07 in 10.0 mi East 4.6 mph - N/A   Clear
12:35 AM 64.4 °F - 62.6 °F 94% 30.07 in 10.0 mi East 5.8 mph - N/A   Clear
12:55 AM 64.4 °F - 62.6 °F 94% 30.06 in 10.0 mi ESE 5.8 mph - N/A   Clear
1:15 AM 64.4 °F - 64.4 °F 100% 30.06 in 10.0 mi ESE 6.9 mph - N/A   Clear
1:35 AM 66.2 °F - 64.4 °F 94% 30.05 in 10.0 mi ESE 5.8 mph - N/A   Clear
2:15 AM 66.2 °F - 64.4 °F 94% 30.05 in 10.0 mi East 4.6 mph - N/A   Clear
2:35 AM 64.4 °F - 64.4 °F 100% 30.04 in 10.0 mi ESE 3.5 mph - N/A   Partly Cloudy
2:55 AM 64.4 °F - 64.4 °F 100% 30.03 in 10.0 mi ESE 3.5 mph - N/A   Mostly Cloudy
3:15 AM 66.2 °F - 64.4 °F 94% 30.03 in 10.0 mi ESE 4.6 mph - N/A   Overcast
3:35 AM 66.2 °F - 64.4 °F 94% 30.01 in 10.0 mi ESE 5.8 mph - N/A   Overcast
3:55 AM 66.2 °F - 64.4 °F 94% 30.01 in 10.0 mi ESE 5.8 mph - N/A   Mostly Cloudy
4:15 AM 66.2 °F - 64.4 °F 94% 30.00 in 10.0 mi ESE 5.8 mph - N/A   Overcast
4:35 AM 66.2 °F - 64.4 °F 94% 30.00 in 10.0 mi ESE 4.6 mph - N/A   Overcast
4:55 AM 66.2 °F - 64.4 °F 94% 30.01 in 10.0 mi East 3.5 mph - N/A   Overcast
5:15 AM 66.2 °F - 64.4 °F 94% 30.00 in 10.0 mi Calm Calm - N/A   Overcast
5:35 AM 66.2 °F - 64.4 °F 94% 30.00 in 10.0 mi ESE 4.6 mph - N/A   Overcast
5:55 AM 66.2 °F - 64.4 °F 94% 30.00 in 10.0 mi ESE 3.5 mph - N/A   Overcast
6:15 AM 66.2 °F - 64.4 °F 94% 29.99 in 10.0 mi SE 4.6 mph - N/A   Overcast
6:35 AM 66.2 °F - 64.4 °F 94% 29.99 in 10.0 mi SE 3.5 mph - N/A   Overcast
6:55 AM 66.2 °F - 64.4 °F 94% 29.99 in 10.0 mi SE 5.8 mph - N/A   Scattered Clouds
7:15 AM 66.2 °F - 64.4 °F 94% 29.98 in 10.0 mi SE 6.9 mph - N/A   Partly Cloudy
7:35 AM 66.2 °F - 64.4 °F 94% 29.98 in 10.0 mi ESE 5.8 mph - N/A   Clear
7:55 AM 66.2 °F - 64.4 °F 94% 29.99 in 10.0 mi ESE 6.9 mph - N/A   Clear
8:15 AM 69.8 °F - 64.4 °F 83% 30.00 in 10.0 mi ESE 6.9 mph - N/A   Clear
8:35 AM 69.8 °F - 66.2 °F 88% 30.00 in 10.0 mi SE 10.4 mph - N/A   Clear
8:55 AM 71.6 °F - 66.2 °F 83% 30.01 in 10.0 mi SE 6.9 mph - N/A   Partly Cloudy
9:15 AM 71.6 °F - 66.2 °F 83% 30.01 in 10.0 mi SE 8.1 mph - N/A   Clear
9:35 AM 73.4 °F - 66.2 °F 78% 30.01 in 10.0 mi SE 6.9 mph - N/A   Clear
9:55 AM 75.2 °F - 66.2 °F 73% 30.00 in 10.0 mi SSE 12.7 mph 18.4 mph N/A   Partly Cloudy
10:15 AM 75.2 °F - 66.2 °F 73% 30.00 in 10.0 mi SSE 10.4 mph 18.4 mph N/A   Scattered Clouds
10:35 AM 77.0 °F - 66.2 °F 69% 30.01 in 10.0 mi SSE 13.8 mph 17.3 mph N/A   Mostly Cloudy
11:15 AM 75.2 °F - 66.2 °F 73% 30.02 in 10.0 mi SSE 8.1 mph - N/A   Mostly Cloudy
11:35 AM 75.2 °F - 69.8 °F 83% 30.03 in 4.0 mi South 6.9 mph - N/A   Mostly Cloudy
11:55 AM 77.0 °F - 69.8 °F 78% 30.01 in 10.0 mi South 9.2 mph - N/A   Scattered Clouds
12:15 PM 78.8 °F - 68.0 °F 69% 30.01 in 10.0 mi South 9.2 mph - N/A   Scattered Clouds
12:35 PM 80.6 °F 83.2 °F 68.0 °F 65% 30.00 in 10.0 mi SSE 8.1 mph - N/A   Mostly Cloudy
12:55 PM 80.6 °F 82.7 °F 66.2 °F 61% 30.00 in 10.0 mi South 8.1 mph - N/A   Mostly Cloudy
1:15 PM 82.4 °F 85.4 °F 68.0 °F 62% 29.99 in 10.0 mi South 11.5 mph - N/A   Mostly Cloudy
1:35 PM 82.4 °F 85.4 °F 68.0 °F 62% 29.98 in 10.0 mi South 13.8 mph 17.3 mph N/A   Scattered Clouds
2:15 PM 82.4 °F 84.6 °F 66.2 °F 58% 29.96 in 10.0 mi South 10.4 mph 16.1 mph N/A   Partly Cloudy
2:35 PM 84.2 °F 85.6 °F 64.4 °F 51% 29.95 in 10.0 mi South 8.1 mph - N/A   Partly Cloudy
2:55 PM 84.2 °F 85.6 °F 64.4 °F 51% 29.95 in 10.0 mi South 10.4 mph - N/A   Partly Cloudy
3:15 PM 84.2 °F 85.6 °F 64.4 °F 51% 29.94 in 10.0 mi SSW 9.2 mph - N/A   Scattered Clouds
3:35 PM 84.2 °F 85.0 °F 62.6 °F 48% 29.93 in 10.0 mi SW 12.7 mph - N/A   Partly Cloudy
3:55 PM 86.0 °F 85.4 °F 59.0 °F 40% 29.92 in 10.0 mi SW 11.5 mph 16.1 mph N/A   Clear
4:15 PM 86.0 °F 85.4 °F 59.0 °F 40% 29.91 in 10.0 mi SSW 11.5 mph - N/A   Partly Cloudy
4:35 PM 86.0 °F 86.1 °F 60.8 °F 43% 29.90 in 10.0 mi SW 9.2 mph - N/A   Clear
4:55 PM 84.2 °F 84.4 °F 60.8 °F 45% 29.90 in 10.0 mi SSW 9.2 mph - N/A   Clear
5:15 PM 84.2 °F 85.0 °F 62.6 °F 48% 29.89 in 10.0 mi SSW 12.7 mph 18.4 mph N/A   Clear
5:35 PM 84.2 °F 85.0 °F 62.6 °F 48% 29.89 in 10.0 mi SW 16.1 mph - N/A   Partly Cloudy
5:55 PM 82.4 °F 82.9 °F 60.8 °F 48% 29.90 in 10.0 mi SW 15.0 mph 20.7 mph N/A   Scattered Clouds
6:15 PM 80.6 °F 80.8 °F 57.2 °F 45% 29.90 in 10.0 mi SW 13.8 mph 18.4 mph N/A   Scattered Clouds
6:35 PM 80.6 °F 80.5 °F 55.4 °F 42% 29.89 in 10.0 mi SW 11.5 mph - N/A   Clear
6:55 PM 80.6 °F 80.3 °F 53.6 °F 39% 29.88 in 10.0 mi SW 9.2 mph - N/A   Clear
7:15 PM 80.6 °F 80.5 °F 55.4 °F 42% 29.89 in 10.0 mi SW 9.2 mph - N/A   Clear
7:35 PM 78.8 °F - 57.2 °F 47% 29.89 in 10.0 mi WSW 10.4 mph - N/A   Clear
7:55 PM 77.0 °F - 59.0 °F 54% 29.90 in 10.0 mi WSW 6.9 mph - N/A   Clear
8:15 PM 75.2 °F - 60.8 °F 61% 29.90 in 10.0 mi WSW 6.9 mph - N/A   Clear
8:35 PM 73.4 °F - 60.8 °F 65% 29.90 in 10.0 mi SW 4.6 mph - N/A   Clear
8:55 PM 71.6 °F - 60.8 °F 69% 29.90 in 10.0 mi SW 4.6 mph - N/A   Clear
9:15 PM 69.8 °F - 60.8 °F 73% 29.90 in 10.0 mi SW 3.5 mph - N/A   Clear
9:35 PM 69.8 °F - 60.8 °F 73% 29.90 in 10.0 mi WSW 4.6 mph - N/A   Clear
9:55 PM 69.8 °F - 60.8 °F 73% 29.90 in 10.0 mi SW 3.5 mph - N/A   Clear
10:15 PM 69.8 °F - 60.8 °F 73% 29.91 in 10.0 mi Calm Calm - N/A   Clear
10:35 PM 66.2 °F - 62.6 °F 88% 29.91 in 10.0 mi Calm Calm - N/A   Clear
10:55 PM 66.2 °F - 60.8 °F 83% 29.91 in 10.0 mi Calm Calm - N/A   Clear
11:15 PM 66.2 °F - 60.8 °F 83% 29.90 in 10.0 mi Calm Calm - N/A   Clear
11:35 PM 66.2 °F - 60.8 °F 83% 29.90 in 10.0 mi Calm Calm - N/A   Clear
11:55 PM 64.4 °F - 60.8 °F 88% 29.89 in 10.0 mi Calm Calm - N/A   Clear